DateTimeUTC,F1_A11,F1_S11,BsB_S11,BsG_S11,BsR_S11,BbsB_S11,BbsG_S11,BbsR_S11,BaB_A11,BaG_A11,BaR_A11,Tu_S11,T_S11,Uu_S11,U_S11,P_S11,T1_A11
2021-09-13T13:00:00Z,00000200,20000000,,,,,,,-000.19,-000.30,-000.06,18.4,25.3,01.8,01.2,0661.4,31.1
2021-09-13T13:01:00Z,00000200,20000000,,,,,,,0000.06,0000.29,0000.06,18.4,25.3,01.7,01.1,0661.4,31.1
2021-09-13T13:02:00Z,00000200,20000000,,,,,,,0000.11,0000.29,0000.08,18.4,25.3,01.7,01.1,0661.4,31.1
2021-09-13T13:03:00Z,00000200,60000000,,,,,,,0000.13,-000.02,-000.34,18.4,25.3,01.7,01.1,0661.4,31.1
2021-09-13T13:04:00Z,00000200,40000000,-000.21,0000.27,0000.39,0000.01,0000.26,-000.02,0000.31,0000.23,0000.54,18.5,25.2,01.8,01.2,0662.5,31.1
2021-09-13T13:05:00Z,00000200,00000000,0000.43,0000.50,0000.16,-000.49,0000.30,-000.18,-000.12,0000.01,0000.21,18.6,25.1,02.0,01.3,0662.4,31.1
2021-09-13T13:06:00Z,00000200,01000000,0000.15,0000.24,0000.22,-000.16,0000.19,0000.07,0000.03,0000.28,-000.05,18.6,25.1,01.9,01.3,0662.4,31.1
2021-09-13T13:07:00Z,00000200,00000000,-000.04,0000.30,0000.27,0000.45,-000.07,0000.04,0000.29,-000.14,-000.03,18.5,25.1,01.9,01.3,0662.4,31.1
2021-09-13T13:08:00Z,00000200,00000000,0000.00,0000.39,0000.22,-000.04,-000.15,0000.15,0000.20,-000.08,0000.35,18.6,25.1,02.0,01.3,0662.4,31.1
2021-09-13T13:09:00Z,00000200,00000000,-000.13,-000.11,0000.13,0000.39,0000.12,-000.19,-000.18,-000.17,-000.24,18.6,25.1,01.8,01.2,0662.4,31.1
2021-09-13T13:10:00Z,00000200,00000000,-000.05,0000.10,0000.45,-000.27,0000.24,0000.13,0000.00,-000.15,-000.38,18.6,25.0,01.9,01.3,0662.3,31.1
2021-09-13T13:11:00Z,00000200,00000000,0000.26,-000.02,0000.19,-000.27,0000.42,0000.10,0000.11,0000.25,0000.14,18.6,25.1,01.9,01.3,0662.2,31.1
2021-09-13T13:12:00Z,00000200,00000000,0000.14,0000.05,0000.16,0000.34,0000.13,-000.19,0000.36,0000.27,0000.71,18.6,25.1,01.8,01.2,0662.3,31.1
2021-09-13T13:13:00Z,00000200,00000000,0000.63,0000.15,0000.46,-000.23,0000.04,0000.04,0000.10,0000.51,-000.12,18.6,25.1,01.9,01.3,0662.3,31.1
2021-09-13T13:14:00Z,00000200,01000000,-000.49,0000.48,-000.04,0000.34,0000.10,-000.54,0000.39,-000.20,0000.17,18.6,25.1,02.0,01.3,0662.4,31.1
2021-09-13T13:15:00Z,00000200,00000000,0000.35,0000.59,0000.40,-000.47,-000.23,-000.08,-000.06,0000.51,-000.01,18.6,25.1,02.0,01.3,0662.4,31.1
2021-09-13T13:16:00Z,00000200,01000000,0000.12,0000.47,-000.12,0000.08,0000.03,-000.03,0000.18,0000.10,0000.07,18.6,25.1,01.9,01.3,0662.4,31.1
2021-09-13T13:17:00Z,00000200,00000000,-000.24,0000.25,0000.28,0000.05,0000.13,-000.04,-000.14,-000.05,-000.02,18.6,25.1,02.0,01.3,0662.4,31.1
2021-09-13T13:18:00Z,00000200,00000000,-000.06,0000.20,0000.05,-000.31,0000.10,0000.09,0000.09,-000.21,0000.14,18.6,25.1,02.0,01.3,0662.3,31.1
2021-09-13T13:19:00Z,00000200,00000000,-000.08,0000.08,-000.03,-000.33,-000.04,-000.13,0000.37,0000.24,0000.14,18.6,25.1,02.0,01.4,0662.4,31.1
2021-09-13T13:20:00Z,00000200,00000000,0000.25,0000.47,-000.07,-000.05,0000.11,-000.00,0000.20,0000.04,0000.25,18.6,25.1,02.0,01.4,0662.4,31.1
2021-09-13T13:21:00Z,00000200,01000000,0000.20,0000.13,0000.18,-000.11,0000.05,-000.01,-000.09,0000.38,-000.07,18.6,25.1,02.0,01.4,0662.4,31.1
2021-09-13T13:22:00Z,00000200,00000000,-000.43,0000.13,0000.23,-000.38,0000.12,-000.16,0000.21,-000.08,-000.23,18.6,25.1,02.0,01.4,0662.4,31.1
2021-09-13T13:23:00Z,00000200,00000000,-000.24,0000.27,0000.12,0000.07,-000.13,-000.27,0000.06,0000.37,0000.40,18.6,25.1,02.0,01.4,0662.4,31.0
2021-09-13T13:24:00Z,00000200,00000000,-000.15,0000.49,-000.21,-000.42,-000.14,-000.22,-000.10,0000.14,-000.04,18.6,25.1,02.0,01.4,0662.3,31.1
2021-09-13T13:25:00Z,00000200,00000000,0000.07,0000.18,0000.25,0000.33,0000.14,-000.01,0000.32,-000.01,0000.20,18.6,25.1,02.1,01.4,0662.4,31.1
2021-09-13T13:26:00Z,00000200,00000000,0000.73,0000.64,0000.45,-000.10,0000.23,-000.16,0000.67,0000.44,0000.28,18.6,25.1,02.0,01.3,0662.4,31.0
2021-09-13T13:27:00Z,00000200,00000000,0000.09,0000.34,0000.23,0000.04,0000.16,0000.01,-000.41,0000.08,-000.02,18.7,25.1,02.0,01.4,0662.4,31.1
2021-09-13T13:28:00Z,00000200,00000000,0000.68,-000.04,-000.00,0000.44,-000.08,-000.23,0000.12,0000.13,0000.02,18.7,25.1,02.1,01.4,0662.4,31.1
2021-09-13T13:29:00Z,00000200,00000000,0000.52,0000.34,-000.00,0000.06,0000.15,-000.14,0000.06,-000.27,0000.30,18.7,25.2,02.1,01.4,0662.4,31.1
2021-09-13T13:30:00Z,00000200,00000000,-000.00,0000.39,0000.59,-000.37,0000.15,0000.12,-000.12,0000.05,-000.21,18.7,25.1,02.0,01.4,0662.4,31.1
2021-09-13T13:31:00Z,00000200,01000000,0000.21,0000.27,0000.22,0000.23,0000.04,-000.11,0000.23,0000.22,0000.14,18.7,25.1,02.1,01.4,0662.4,31.1
2021-09-13T13:32:00Z,00000200,00000000,0000.64,0000.37,0000.04,0000.07,0000.10,-000.31,0000.46,0000.00,-000.08,18.7,25.1,02.0,01.3,0662.4,31.1
2021-09-13T13:33:00Z,00000200,00000000,0000.61,0000.20,-000.00,0000.28,-000.16,-000.32,-000.14,-000.41,-000.24,18.7,25.1,02.1,01.4,0662.3,31.1
2021-09-13T13:34:00Z,00000200,00000000,-000.27,0000.37,0000.12,-000.05,-000.16,0000.08,-000.35,0000.60,0000.29,18.7,25.1,02.0,01.3,0662.3,31.1
2021-09-13T13:35:00Z,00000200,00000000,0000.29,0000.64,0000.58,-000.45,0000.19,-000.09,0000.65,0000.11,0000.08,18.7,25.1,02.0,01.4,0662.4,31.1
2021-09-13T13:36:00Z,00000200,00000000,-000.15,0000.24,0000.10,0000.02,0000.13,-000.33,-000.16,0000.02,0000.20,18.7,25.1,02.1,01.4,0662.4,31.1
2021-09-13T13:37:00Z,00000200,00000000,0000.60,0000.32,-000.00,0000.11,-000.16,-000.33,0000.17,0000.01,-000.08,18.7,25.2,02.1,01.4,0662.3,31.1
2021-09-13T13:38:00Z,00000200,00000000,-000.20,0000.41,-000.24,0000.05,0000.22,-000.17,0000.01,0000.03,0000.28,18.7,25.2,02.0,01.3,0662.3,31.1
2021-09-13T13:39:00Z,00000200,00000000,0000.69,0000.30,0000.12,0000.06,-000.09,-000.33,0000.26,0000.67,0000.28,18.7,25.1,02.1,01.4,0662.4,31.1
2021-09-13T13:40:00Z,00000200,00000000,0000.26,0000.28,-000.17,-000.01,0000.19,-000.24,0000.09,-000.03,0000.02,18.7,25.1,02.2,01.5,0662.3,31.1
2021-09-13T13:41:00Z,00000200,00000000,0000.04,0000.36,-000.06,0000.43,-000.04,-000.10,0000.05,-000.20,-000.11,18.7,25.2,02.2,01.5,0662.4,31.1
2021-09-13T13:42:00Z,00000200,00000000,0000.11,0000.09,-000.09,0000.28,-000.11,0000.09,0000.40,0000.60,0000.51,18.7,25.1,02.1,01.4,0662.4,31.1
2021-09-13T13:43:00Z,00000200,00000000,-000.08,0000.38,0000.09,0000.08,-000.08,-000.16,0000.11,-000.16,0000.02,18.7,25.1,02.2,01.5,0662.3,31.1
2021-09-13T13:44:00Z,00000200,00000000,0000.88,0000.36,-000.09,0000.22,0000.15,0000.03,0000.21,0000.09,0000.11,18.7,25.1,02.2,01.5,0662.3,31.1
2021-09-13T13:45:00Z,00000200,00000000,0000.71,0000.38,0000.21,-000.17,0000.18,-000.14,0000.06,0000.17,-000.05,18.7,25.1,02.2,01.5,0662.3,31.1
2021-09-13T13:46:00Z,00000200,00000000,-000.01,0000.26,0000.14,-000.14,0000.05,-000.17,0000.12,0000.03,0000.28,18.7,25.1,02.2,01.5,0662.3,31.1
2021-09-13T13:47:00Z,00000200,00000000,0000.73,0000.00,-000.26,0000.59,0000.12,-000.38,0000.08,0000.28,-000.02,18.7,25.2,02.2,01.5,0662.4,31.1
2021-09-13T13:48:00Z,00000200,00000000,0000.62,0000.34,0000.01,0000.27,0000.21,0000.06,0000.43,0000.15,0000.14,18.7,25.2,02.2,01.5,0662.4,31.1
2021-09-13T13:49:00Z,00000200,00000000,-000.53,0000.24,0000.30,0000.25,-000.06,-000.32,0000.26,0000.80,0000.17,18.7,25.2,02.4,01.6,0662.5,31.1
2021-09-13T13:50:00Z,00000200,00000000,-000.34,0000.18,0000.01,-000.22,0000.30,-000.25,-000.12,-000.22,0000.34,18.7,25.2,02.4,01.6,0662.4,31.1
2021-09-13T13:51:00Z,00000200,00000000,-000.10,0000.12,0000.16,-000.22,-000.10,-000.21,0000.72,0000.48,0000.04,18.7,25.2,02.6,01.7,0662.4,31.1
2021-09-13T13:52:00Z,00000200,00000000,-000.41,0000.28,0000.41,-000.42,-000.01,-000.27,0000.18,0000.09,0000.40,18.7,25.2,02.6,01.7,0662.4,31.1
2021-09-13T13:53:00Z,00000200,00000000,-000.43,0000.36,0000.20,0000.02,-000.23,-000.05,0000.69,0000.89,0000.57,18.7,25.2,02.8,01.9,0662.4,31.1
2021-09-13T13:54:00Z,00000200,00000000,-000.18,0000.11,-000.20,-000.12,0000.16,-000.00,0000.49,0000.22,0000.31,18.7,25.2,03.0,02.0,0662.4,31.1
2021-09-13T13:55:00Z,00000200,00000000,0000.22,0000.18,0000.05,-000.03,-000.16,0000.09,0000.34,0000.47,0000.19,18.7,25.2,03.1,02.1,0662.4,31.1
2021-09-13T13:56:00Z,00000200,00000000,-000.44,0000.43,-000.27,-000.23,0000.17,-000.54,0000.59,0000.31,0000.42,18.8,25.2,03.3,02.2,0662.3,31.1
2021-09-13T13:57:00Z,00000200,40000000,,,,,,,-000.84,-000.79,-000.73,18.8,25.2,03.3,02.2,0662.4,31.1
2021-09-13T13:58:00Z,00000200,60000000,,,,,,,0000.92,0000.94,0000.43,18.5,25.3,03.1,02.1,0661.5,31.1
2021-09-13T13:59:00Z,00000200,20000000,,,,,,,0000.43,0000.15,0000.40,18.5,25.4,03.2,02.1,0661.5,31.1
